Flag for U.S.A. Weather past 2 weeks in Bristol, Tennessee, U.S.A.

45 °F


Feels Like: 40 °F
Forecast: 35 / 63 °F
Wind: 8 mph from East

Location: Abingdon-Southwest Abingdon

Current Time: Nov 26, 2015 at 4:29:50 AM

Latest Report: Nov 26, 2015 at 3:55 AM

Visibility: 10 mi

Pressure: 30.62 "Hg (28.77 "Hg at 510m altitude)

Humidity: 47%

Dew point: 25 °F

Location of BristolLocation

Historic Weather in Bristol — Graph


Bristol temperature yesterday

Maximum temperature yesterday: 60 °F (at 2:55 PM)
Minimum temperature yesterday: 35 °F (at 2:15 AM)
Average temperature yesterday: 47 °F

Past Weeks' High & Low Weather Summary

High67 °F (Nov 12, 2:35 PM)96% (Nov 11, 7:55 AM)30.61 "Hg (Nov 11, 7:55 AM)
Low25 °F (Nov 23, 6:55 AM)8% (Nov 13, 2:15 PM)29.84 "Hg (Nov 12, 4:55 AM)
Average47 °F50%30.20 "Hg
* Reported Nov 11 3:15 AM — Nov 26 3:15 AM, Bristol, Weather by CustomWeather, © 2015

Note: Actual official high and low records may vary slightly from our data, if they occured in-between our weather recording intervals... More about our weather records


Bristol weather history for previous 24 hours

Time TempWeatherWind HumidityBarometerVisibility
3:15 AM
Thu, Nov 26
45 °FClear.10 mph45%30.61 "Hg10 mi
2:55 AM45 °FClear.9 mph45%30.61 "Hg10 mi
2:35 AM45 °FClear.10 mph43%30.61 "Hg10 mi
2:15 AM45 °FClear.9 mph42%30.61 "Hg10 mi
1:15 AM46 °FClear.10 mph45%30.61 "Hg10 mi
12:55 AM46 °FClear.7 mph43%30.61 "Hg10 mi
12:35 AM46 °FClear.6 mph44%30.61 "Hg10 mi
12:15 AM46 °FClear.8 mph44%30.61 "Hg10 mi
11:55 PM
Wed, Nov 25
46 °FClear.7 mph45%30.60 "Hg10 mi
11:15 PM44 °FClear.9 mph53%30.60 "Hg10 mi
10:55 PM43 °FClear.8 mph57%30.60 "Hg10 mi
9:55 PM45 °FClear.9 mph52%30.58 "Hg10 mi
9:15 PM46 °FClear.9 mph50%30.58 "Hg10 mi
8:55 PM45 °FClear.10 mph51%30.57 "Hg10 mi
8:35 PM45 °FClear.10 mph50%30.57 "Hg10 mi
8:15 PM46 °FClear.9 mph47%30.56 "Hg10 mi
7:35 PM48 °FClear.9 mph44%30.55 "Hg10 mi
6:35 PM49 °FClear.9 mph38%30.53 "Hg10 mi
6:15 PM51 °FClear.7 mph36%30.53 "Hg10 mi
5:55 PM52 °FClear.7 mph32%30.53 "Hg10 mi
5:35 PM52 °FClear.5 mph30%30.53 "Hg10 mi
5:15 PM55 °FClear.5 mph26%30.51 "Hg10 mi
4:55 PM56 °FSunny.5 mph24%30.51 "Hg10 mi
3:55 PM60 °FSunny.7 mph19%30.50 "Hg10 mi
3:35 PM60 °FSunny.6 mph19%30.50 "Hg10 mi
3:15 PM59 °FSunny.7 mph19%30.50 "Hg10 mi
2:55 PM60 °FSunny.5 mph18%30.50 "Hg10 mi
2:35 PM60 °FSunny.7 mph18%30.50 "Hg10 mi
2:15 PM58 °FSunny.6 mph21%30.50 "Hg10 mi
1:55 PM59 °FSunny.3 mph20%30.50 "Hg10 mi
1:35 PM59 °FSunny.5 mph21%30.51 "Hg10 mi
1:15 PM58 °FSunny.No wind19%30.51 "Hg10 mi
12:55 PM60 °FSunny.6 mph18%30.51 "Hg10 mi
12:35 PM60 °FSunny.7 mph20%30.51 "Hg10 mi
12:15 PM58 °FSunny.8 mph25%30.52 "Hg10 mi
11:55 AM57 °FSunny.7 mph28%30.52 "Hg10 mi
11:35 AM55 °FSunny.7 mph32%30.53 "Hg10 mi
11:15 AM54 °FSunny.9 mph32%30.53 "Hg10 mi
10:55 AM53 °FSunny.9 mph34%30.54 "Hg10 mi
10:35 AM52 °FSunny.8 mph36%30.54 "Hg10 mi
10:15 AM51 °FSunny.10 mph39%30.54 "Hg10 mi
9:55 AM49 °FScattered clouds.9 mph41%30.54 "Hg10 mi
9:35 AM47 °FSunny.8 mph46%30.53 "Hg10 mi
9:15 AM45 °FSunny.10 mph48%30.52 "Hg10 mi
8:55 AM43 °FSunny.8 mph52%30.52 "Hg10 mi
8:35 AM42 °FSunny.10 mph54%30.51 "Hg10 mi
8:15 AM41 °FSunny.9 mph54%30.51 "Hg10 mi
7:55 AM41 °FSunny.9 mph53%30.50 "Hg10 mi
7:35 AM39 °FSunny.9 mph56%30.49 "Hg10 mi
7:15 AM38 °FSunny.9 mph58%30.49 "Hg10 mi
6:55 AM37 °FClear.8 mph60%30.48 "Hg10 mi
6:35 AM38 °FClear.7 mph58%30.47 "Hg10 mi
6:15 AM37 °FClear.9 mph60%30.46 "Hg10 mi
5:55 AM37 °FClear.8 mph60%30.45 "Hg10 mi
5:35 AM39 °FClear.9 mph57%30.45 "Hg10 mi
5:15 AM38 °FClear.10 mph60%30.44 "Hg10 mi
4:55 AM37 °FClear.10 mph61%30.43 "Hg10 mi
4:35 AM37 °FClear.3 mph62%30.43 "Hg10 mi
4:15 AM37 °FClear.9 mph60%30.42 "Hg10 mi
Weather by CustomWeather, © 2015

See weather overviewHow to use our weather pages